Showing default

FLOCK 1C 2, 40029

Orbit data source: Space-Track

FLOCK 1C 2, 40029 is a payload satellite owned by Planet Labs (US) in LEO that was launched on Thu, 19 Jun 2014 UTC via a DNEPR launch vehicle from the Orenburg, Russia (OREN). Payloads include a variety of satellites, spacecraft, and rockets equipped with specific instruments for various scientific and technological missions. These include communications satellites like Starlink; space stations such as the ISS; scientific satellites like the Hubble; Earth observation satellites from companies like Planet Labs, Umbra, and HawkEye 360; GPS; miniature CubeSats for education and research; and military/defense satellites.

Loading next visibility...
FLOCK 1C 2 details
Identifier
40029, 2014-033V
Orbit
LEO
Last TLE update8 hours ago
Origin
Flag of USPlanet Labs (US)
ManufacturerPlanet Labs
MissionNon-operational Commercial Imaging
Bus & MotorCUBESAT 3U, Unknown motor
Mass4.25 kg wet, 4.25 kg dry
Launch date (UTC)
2014-06-19 (10 years ago)
Launch vehicle
DNEPR
Launch site
Orenburg, Russia (OREN)
Object type
Payload
Rocket body
Debris
Shape & HBRBox + 2 Pan, 0.3 m
Radar Cross Section0.108 m², Small (<0.1 m²)

Expand to show TLE details & history

TLE from 8 hours ago
0 FLOCK 1C 2
1 40029U 14033V   24339.79376798  .00090962  00000-0  22386-2 0  9992
2 40029  98.1005 337.4134 0001858 188.0115 172.1100 15.40259763570142
Epoch: 2024-12-04T19:03Z
Definitive object data (Epoch: 2024-12-04T19:03:01.553Z)
Latitude0.00001°
Longitude-22.42689°
Altitude449.695 km
Speed7.642 km/s
True Right ascension22h 29m 39s
True Declination0° 00' 00"
Sunlit
Object was in daylight at TLE epoch
Visualization TLE readout
Latitude22.87001°
Longitude161.38662°
Altitude446.985 km
Speed7.647 km/s
Apparent Right ascension11h 56m 11s
Apparent Declination-7° 46' 46"
Sunlit
Object is in daylight
Visualization observer readout
Local Sidereal Time01:28:46
Azimuth39.008° NE
Elevation-51.778°
Doppler factor1
Orbital elements
Apogee altitude443.579 km
Perigee altitude441.045 km
Semi-major axis6,820.449 km
Eccentricity0.0001858
Inclination98.1005°
RAAN337.4134°
Arg. of periapsis188.0115°
True anomaly172.11292°
Mean anomaly172.11°
Eccentric anomaly172.11146°
Mean motion3.85322 °/min
BSTAR0.0022386
Orbital period93.43 mins
Loading maneuver chart data...
Loading historical data...
Loading historical data...
Loading historical data...
Loading historical data...
Loading historical data...
Loading historical data...
Loading historical data...

FLOCK 1C 2 Visibility forecast

Observer location: undefined°, undefined

Span
Click to sort rows by Start time (UTC) header in descending order
Start Az.
Max El. time (UTC)
Max El. Az.
Max El.
End time (UTC)
End Az.
6 mins2024-12-05 12:45:30.787Z22.95° NE2024-12-05 12:48:30.787Z109.384° ESE39.649°2024-12-05 12:51:30.787Z180.321° SSW
|